Flag for U.S.A. Weather past 2 weeks in Honolulu, Hawaii, U.S.A.

Now
81 °F

Broken clouds.


Feels Like: 83 °F
Forecast: 70 / 80 °F
Wind: 14 mph from East

Location: Honolulu International Airport


UV Index: 7 (High)

Visibility: 10 mi


Pressure: 30.11 "Hg

Humidity: 60%

Dew point: 66 °F

Location of HonoluluLocation

Historic Weather in Honolulu

°F

Honolulu temperature yesterday

Maximum temperature yesterday: 85 °F (at 2:53 PM)
Minimum temperature yesterday: 73 °F (at 1:53 AM)
Average temperature yesterday: 78 °F

Past Weeks' High & Low Weather Summary

 TemperatureHumidityPressure
High85 °F (Apr 17, 2:53 PM)90% (Apr 12, 5:53 AM)30.18 "Hg (Apr 12, 5:53 AM)
Low67 °F (Apr 6, 5:53 AM)39% (Apr 8, 11:53 AM)29.94 "Hg (Apr 5, 3:53 PM)
Average75 °F61%30.07 "Hg
* Reported Apr 3 10:53 AM — Apr 18 10:53 AM, Honolulu, Weather by CustomWeather, © 2014

Note: Actual official high and low records may vary slightly from our data, if they occured in-between our weather recording intervals... More about our weather records

Advertising

Historic Weather Conditions — Data for Previous 24 hours

 ConditionsComfort  
Time TempWeatherWind HumidityBarometerVisibility
10:53 AM
Apr 18
81 °FBroken clouds.16 mph60%30.12 "Hg10 mi
9:53 AM81 °FBroken clouds.12 mph60%30.13 "Hg10 mi
8:53 AM79 °FBroken clouds.12 mph65%30.12 "Hg10 mi
7:53 AM76 °FBroken clouds.10 mph69%30.12 "Hg10 mi
6:53 AM74 °FBroken clouds.3 mph74%30.10 "Hg10 mi
5:53 AM72 °FPassing clouds.3 mph81%30.09 "Hg10 mi
4:53 AM73 °FPassing clouds.No wind76%30.07 "Hg10 mi
3:53 AM73 °FPassing clouds.No wind79%30.08 "Hg10 mi
2:53 AM73 °FPassing clouds.5 mph79%30.07 "Hg10 mi
1:53 AM74 °FPassing clouds.6 mph76%30.07 "Hg10 mi
12:53 AM74 °FPassing clouds.8 mph76%30.11 "Hg10 mi
11:53 PM
Apr 17
74 °FPassing clouds.3 mph76%30.11 "Hg10 mi
10:53 PM74 °FPartly cloudy.8 mph82%30.13 "Hg10 mi
9:53 PM75 °FPartly cloudy.5 mph76%30.12 "Hg10 mi
8:53 PM76 °FPassing clouds.10 mph74%30.11 "Hg10 mi
7:53 PM76 °FPassing clouds.7 mph74%30.10 "Hg10 mi
6:53 PM77 °FPartly cloudy.3 mph69%30.09 "Hg10 mi
5:53 PM80 °FBroken clouds.14 mph60%30.05 "Hg10 mi
4:53 PM83 °FScattered clouds.9 mph55%30.04 "Hg10 mi
3:53 PM83 °FScattered clouds.16 mph53%30.03 "Hg10 mi
2:53 PM85 °FBroken clouds.21 mph50%30.03 "Hg10 mi
1:53 PM84 °FBroken clouds.18 mph51%30.06 "Hg10 mi
12:53 PM84 °FScattered clouds.17 mph51%30.08 "Hg10 mi
Weather by CustomWeather, © 2014

See weather overview